Flag Weather past 2 weeks in Appleton, Wisconsin, U.S.A.

Now
32 °F

Overcast.


Feels Like: 24 °F
Forecast: 27 / 43 °F
Wind: 9 mph from North

Location: Appleton / Outagamie

Current Time: Nov 1, 2014 at 1:20:15 AM

Latest Report: Nov 1, 2014 at 12:35 AM


Visibility: 10 mi

Pressure: 30.44 "Hg

Humidity: 60%

Dew point: 19 °F

Location of AppletonLocation

Historic Weather in Appleton — Graph

°F

Appleton temperature yesterday

Maximum temperature yesterday: 39 °F (at 12:15 AM)
Minimum temperature yesterday: 30 °F (at 9:45 PM)
Average temperature yesterday: 35 °F

Past Weeks' High & Low Weather Summary

 TemperatureHumidityPressure
High66 °F (Oct 27, 1:45 PM)100% (Oct 17, 12:15 AM)30.45 "Hg (Oct 17, 12:15 AM)
Low30 °F (Oct 31, 9:45 PM)27% (Oct 25, 2:45 PM)29.47 "Hg (Oct 17, 5:15 AM)
Average45 °F77%29.97 "Hg
* Reported Oct 17 12:15 AM — Nov 1 12:15 AM, Appleton, Weather by CustomWeather, © 2014

Note: Actual official high and low records may vary slightly from our data, if they occured in-between our weather recording intervals... More about our weather records

Advertising

Appleton weather history for previous 24 hours

 ConditionsComfort  
Time TempWeatherWind HumidityBarometerVisibility
12:15 AM
Nov 1
32 °FOvercast.8 mph60%30.44 "Hg10 mi
11:35 PM
Oct 31
32 °FOvercast.8 mph60%30.44 "Hg10 mi
11:15 PM32 °FOvercast.10 mph55%30.45 "Hg10 mi
10:45 PM32 °FPassing clouds.12 mph55%30.45 "Hg10 mi
9:45 PM30 °FPassing clouds.12 mph59%30.45 "Hg10 mi
8:45 PM32 °FPassing clouds.18 mph51%30.43 "Hg10 mi
7:45 PM34 °FPassing clouds.20 mph48%30.42 "Hg10 mi
5:45 PM36 °FPartly sunny.17 mph48%30.38 "Hg10 mi
4:45 PM36 °FPartly sunny.20 mph48%30.37 "Hg10 mi
3:45 PM37 °FPartly sunny.21 mph48%30.35 "Hg10 mi
2:45 PM37 °FPartly sunny.26 mph45%30.34 "Hg10 mi
1:45 PM37 °FPartly sunny.26 mph48%30.33 "Hg10 mi
12:45 PM37 °FPartly sunny.29 mph48%30.32 "Hg10 mi
11:45 AM37 °FPartly sunny.29 mph48%30.31 "Hg10 mi
10:55 AM36 °FPartly sunny.29 mph52%30.30 "Hg10 mi
9:45 AM34 °FPartly sunny.30 mph56%30.27 "Hg10 mi
8:45 AM34 °FPartly sunny.26 mph56%30.24 "Hg10 mi
7:45 AM34 °FPassing clouds.22 mph56%30.21 "Hg10 mi
6:45 AM34 °FOvercast.21 mph60%30.18 "Hg10 mi
5:45 AM36 °FOvercast.24 mph60%30.15 "Hg10 mi
5:15 AM36 °FOvercast.21 mph70%30.14 "Hg10 mi
4:55 AM36 °FMostly cloudy.24 mph70%30.12 "Hg10 mi
4:35 AM34 °FOvercast.25 mph87%30.11 "Hg10 mi
4:15 AM34 °FMostly cloudy.14 mph93%30.10 "Hg10 mi
3:55 AM34 °FLight rain. Overcast.16 mph93%30.09 "Hg10 mi
3:35 AM34 °FLight rain. Mostly cloudy.16 mph93%30.08 "Hg10 mi
3:15 AM34 °FLight rain. Mostly cloudy.16 mph87%30.07 "Hg10 mi
2:55 AM36 °FLight snow. Mostly cloudy.17 mph81%30.06 "Hg10 mi
2:15 AM36 °FOvercast.16 mph81%30.05 "Hg10 mi
1:55 AM36 °FMostly cloudy.15 mph81%30.05 "Hg10 mi
1:15 AM37 °FOvercast.14 mph75%30.04 "Hg10 mi
Weather by CustomWeather, © 2014

See weather overviewHow to use our weather pages